SCP
0 0 -0 -0 0 0 0 0 0 0 0 0 0 0 0 0 0 0 0 0 0 0 0 0 0 0 0 0 0 0 -0 -0 0 -0 -0 -0 0 -0 -0 -0 -0 -0 -0
0 0 0 0 0 0 0 0 0 0 0 0 0 0 0 0 0 0 0 0 0 0 0 0 0 0 0 0 0 0 0 0 0 0 0 0 0 -0 -0 -0 -0 -0 -0
0 0 0 0 0 0 0 0 0 0 0 0 0 0 0 0 0 0 0 0 0 0 0 0 0 0 0 0 0 0 0 0 0 0 0 0 0 0 0 0 0 0 0
0 0 0 0 0 0 0 0 0 0 0 0 0 0 0 0 0 0 0 0 0 0 0 0 0 0 0 0 0 0 0 0 0 0 0 0 0 0 0 0 0 0 0
0 0 0 0 0 0 0 0 0 0 0 0 0 0 0 0 0 0 0 0 0 0 0 0 0 0 0 0 0 0 0 0 0 0 0 0 0 0 0 0 0 0 0
0 0 0 0 0 0 0 0 0 0 0 0 0 0 0 0 0 0 0 0 0 0 0 0 0 0 0 0 0 0 0 0 0 0 0 0 0 0 0 0 0 0 0
0 0 0 0 0 0 0 0 0 0 0 0 0 0 0 0 0 0 0 0 0 0 0 0 0 0 0 0 0 0 0 0 0 0 0 0 0 0 0 0 0 0 0
0 0 0 0 0 0 0 0 0 0 0 0 0 0 0 0 0 0 0 0 0 0 0 0 0 0 0 0 0 0 0 0 0 0 0 0 0 0 0 0 0 0 0
0 0 0 0 0 0 0 0 0 0 0 0 0 0 0 0 0 0 0 0 0 0 0 0 0 0 0 0 0 0 0 0 0 0 0 0 0 0 0 0 0 0 0
0 0 0 0 0 0 0 0 0 0 0 0 0 0 0 0 0 0 0 0 0 0 0 0 0 0 0 0 0 0 0 0 0 0 0 0 0 0 0 0 0 0 0
0 0 0 0 0 0 0 0 0 0 0 0 0 0 0 0 0 0 0 0 0 0 0 0 0 0 0 0 0 0 0 0 0 0 0 0 0 0 0 0 0 0 0
0 0 0 0 0 0 0 0 0 0 0 0 0 0 0 0 0 0 0 0 0 0 0 0 0 0 0 0 0 0 0 0 0 0 0 0 0 0 0 0 0 0 0
0 0 0 0 0 0 0 0 0 0 0 0 0 0 0 0 0 0 0 0 0 0 0 0 0 0 0 0 0 0 0 0 0 0 0 0 0 0 0 0 0 0 0
0 0 0 0 0 0 0 0 0 0 0 0 0 0 0 0 0 0 0 0 0 0 0 0 0 0 0 0 0 0 0 0 0 0 0 0 0 0 0 0 0 0 0
0 0 0 0 0 0 0 0 0 0 0 0 0 0 0 0 0 0 0 0 0 0 0 0 0 0 0 0 0 0 0 0 0 0 0 0 0 0 0 0 0 0 0
0 0 0 0 0 0 0 0 0 0 0 0 0 0 0 0 0 0 0 0 0 0 0 0 0 0 0 0 0 0 0 0 0 0 0 0 0 0 0 0 0 0 0
0 0 0 0 0 0 0 0 0 0 0 0 0 0 0 0 0 0 0 0 0 0 0 0 0 0 0 0 0 0 0 0 0 0 0 0 0 0 0 0 0 0 0
0 0 0 0 0 0 0 0 0 0 0 0 0 0 0 0 0 0 0 0 0 0 0 0 0 0 0 0 0 0 0 0 0 0 0 0 0 0 0 0 0 0 0
0 0 0 0 0 0 0 0 0 0 0 0 0 0 0 -0 0 0 -0 -0 0 0 0 0 0 0 0 0 0 0 0 0 0 0 0 0 0 0 0 0 0 0 0
0 0 0 0 0 0 0 0 0 0 0 0 0 0 0 0 -0 0 -0 -0 -0 0 0 0 0 0 0 0 0 0 0 0 0 0 0 0 0 0 0 0 0 0 0
0 0 0 0 0 0 0 0 0 0 0 0 0 0 0 0 0 0 0 0 -0 0 -0 0 0 0 0 0 0 0 0 0 0 0 0 0 0 0 0 0 0 0 0
0 0 0 0 0 0 0 0 0 0 0 0 0 0 0 0 0 0 0 0 0 -0 0 -0 0 0 0 0 0 0 0 0 0 0 0 0 0 0 0 0 0 0 0
0 0 0 0 0 0 0 0 0 0 0 0 0 0 0 0 0 0 0 0 0 0 -0 0 0 -0 0 0 0 0 0 0 0 0 0 0 0 0 0 0 0 0 0
0 0 0 0 0 0 0 0 0 0 0 0 0 0 0 0 0 0 0 0 0 0 0 -0 -0 0 0 0 0 0 0 0 0 0 0 0 0 0 0 0 0 0 0
0 0 0 0 0 0 0 0 0 0 0 0 0 0 0 0 0 0 0 0 0 0 0 0 0 0 0 0 0 0 0 0 0 0 0 0 0 0 0 0 0 0 0
0 0 0 0 0 0 0 0 0 0 0 0 0 0 0 0 0 0 0 -0 0 0 0 0 0 0 0 0 -0 0 0 0 0 0 0 0 0 0 0 0 0 0 0
Wind_Speed_500mb
45 32 24 21 20 16 16 16 16 16 17 16 16 14 12 9 7 11 12 11 7 12 11 14 17 19 18 21 29 30 28 28 27 23 21 26 17 15 14 15 16 19 20
43 29 20 20 21 19 18 20 21 21 21 21 18 17 17 13 12 12 14 13 10 13 17 18 22 20 20 14 16 29 34 31 28 30 25 20 17 15 13 16 15 16 15
37 24 22 20 22 23 20 20 23 23 23 23 21 20 18 18 17 16 16 22 21 18 19 22 29 22 24 20 13 18 28 25 24 28 25 19 18 18 14 14 13 14 13
29 22 24 28 31 25 21 21 22 24 24 24 24 19 19 19 19 19 17 21 30 26 24 26 20 35 28 25 17 17 28 30 27 26 22 20 16 16 15 13 13 12 12
29 24 23 27 28 21 25 24 27 28 27 26 24 22 22 21 21 24 23 26 30 37 40 27 23 28 34 30 24 20 27 27 24 26 23 20 18 16 15 15 14 13 11
23 22 25 24 24 25 29 27 31 33 33 31 29 30 26 25 27 28 28 29 30 35 39 31 28 26 37 36 32 28 27 27 23 20 21 21 17 17 17 17 15 13 12
17 12 10 22 26 23 25 31 31 35 38 37 36 38 36 32 30 29 31 31 30 34 37 36 34 30 33 38 38 36 33 35 28 25 23 21 17 17 19 19 18 17 15
17 14 12 10 16 30 30 32 34 36 38 42 43 45 43 43 38 35 35 34 32 33 32 35 38 36 34 35 37 38 39 40 40 35 31 25 24 23 22 21 20 19 18
21 17 15 15 16 18 21 33 35 38 40 44 48 49 50 51 50 44 42 40 36 35 37 37 41 41 37 41 40 41 42 43 44 39 36 32 28 28 24 23 24 22 21
20 22 20 18 18 22 21 21 28 44 42 44 49 52 54 55 58 56 52 48 44 41 39 44 48 47 46 46 45 44 45 47 47 43 39 35 33 30 27 25 24 23 23
18 15 20 26 26 27 29 30 26 30 37 50 50 54 57 60 63 65 60 58 53 48 45 44 49 50 47 47 51 49 49 50 49 48 46 41 37 31 30 28 26 25 24
41 35 31 30 32 35 37 38 35 36 34 40 38 59 56 63 69 71 67 67 63 58 53 53 51 51 52 55 54 52 54 51 51 49 49 46 42 35 34 31 30 29 29
39 39 40 37 34 33 37 40 42 41 42 37 37 42 60 64 65 78 78 74 75 68 62 60 60 58 60 59 58 58 56 55 54 52 52 52 48 42 37 34 33 34 34
43 39 36 37 38 36 35 36 41 44 45 48 48 45 42 70 77 74 87 86 85 81 74 71 69 68 63 60 59 59 60 59 59 58 56 56 52 48 42 39 37 39 39
42 45 44 42 40 40 41 39 39 44 48 50 51 53 59 47 40 79 92 94 94 91 84 79 77 77 71 66 63 63 64 65 63 63 61 61 56 52 47 44 43 44 42
43 46 48 47 49 48 44 42 42 43 46 49 55 54 54 57 60 46 53 93 92 97 96 88 88 84 82 75 71 70 68 69 68 67 65 64 60 55 51 47 48 49 47
41 45 47 50 50 50 51 51 51 49 48 50 52 54 56 55 58 53 40 36 38 87 99 100 95 92 86 84 81 75 73 73 74 72 69 67 63 60 56 51 50 52 50
41 43 46 51 52 53 53 54 58 60 56 55 55 54 57 54 52 59 59 56 41 21 49 109 108 106 100 92 84 82 79 77 78 77 73 70 68 66 61 58 56 55 54
40 43 47 52 55 59 61 63 64 65 65 60 55 57 55 59 56 55 57 68 66 54 42 57 105 116 110 105 93 86 81 80 78 78 77 75 73 71 66 65 63 59 59
43 42 48 55 57 60 62 65 71 74 73 71 65 56 57 59 61 60 60 58 59 66 64 34 32 82 114 113 103 96 87 81 79 78 79 79 77 74 70 69 68 64 61
50 50 54 66 63 63 69 74 80 84 84 81 76 67 58 59 59 62 61 62 62 64 70 69 50 71 32 91 109 99 93 84 82 81 79 79 78 76 76 74 71 68 64
55 54 55 66 66 65 70 76 80 86 86 84 81 79 67 62 61 63 65 64 62 64 63 63 85 84 54 54 96 68 52 74 88 85 78 77 77 77 78 77 73 70 67
56 55 62 62 65 68 72 77 82 89 93 94 94 83 72 70 65 66 66 65 65 60 58 65 70 88 88 56 63 64 37 42 60 89 91 82 78 75 72 75 75 72 66
56 53 55 62 64 66 70 75 80 87 98 97 90 75 75 76 75 69 67 67 68 64 64 61 53 60 82 110 95 55 84 59 44 37 85 90 86 81 81 79 77 74 74
56 54 58 60 62 66 71 75 81 91 87 79 79 80 79 81 81 79 72 68 64 67 63 56 59 63 75 80 103 92 78 87 81 60 42 86 89 87 84 83 81 76 77
60 57 57 60 67 69 73 75 77 79 80 78 77 80 83 82 82 81 79 72 71 69 67 63 64 64 67 74 89 107 95 74 79 78 55 80 98 95 94 88 83 80 78
Wind_Direction_500mb
336 334 328 319 268 249 228 231 235 231 233 242 264 271 278 270 235 191 172 178 170 188 170 169 180 175 192 198 200 209 216 209 211 211 205 206 174 166 151 131 134 132 128
336 325 320 330 278 262 244 235 238 242 249 255 259 265 273 264 254 217 185 179 162 177 197 162 187 204 182 196 211 207 217 215 221 217 217 168 168 154 147 147 146 138 135
347 340 335 331 317 267 251 242 246 254 258 263 263 266 267 266 260 255 230 195 186 192 197 220 232 216 203 209 216 200 200 197 177 176 177 170 170 165 167 160 161 160 152
355 349 344 334 329 274 261 256 255 256 264 268 270 266 270 261 261 260 248 226 197 196 218 223 232 222 211 211 214 183 180 180 170 162 159 159 168 183 188 183 187 177 170
11 341 327 329 329 320 276 264 263 263 264 266 267 256 276 261 263 263 258 252 235 211 221 234 236 226 213 210 204 182 177 173 173 174 175 170 170 195 201 205 200 195 188
25 3 334 308 313 318 320 288 272 266 268 265 263 257 262 263 271 263 261 261 248 233 230 230 236 240 212 211 204 196 188 186 189 190 186 184 186 202 207 216 213 207 202
354 19 13 309 293 296 306 305 299 279 268 264 261 257 262 257 266 262 261 263 253 243 230 220 231 239 214 212 208 204 200 203 203 212 215 204 204 210 215 220 218 216 213
314 328 330 283 292 287 295 294 287 290 274 264 260 259 260 256 256 257 260 263 261 254 226 220 224 233 222 212 211 209 207 206 209 210 222 221 224 225 226 226 227 222 221
266 266 272 278 271 271 286 285 285 282 281 271 267 262 260 258 254 254 255 261 263 260 243 216 225 232 230 215 213 211 210 209 212 215 220 224 220 231 230 231 232 227 224
275 262 264 267 273 278 289 291 289 283 276 273 269 266 264 257 257 256 253 256 261 261 254 239 218 228 231 224 217 216 214 213 215 218 224 228 228 229 235 233 234 233 228
12 327 299 290 284 285 288 290 290 292 301 268 266 265 265 256 252 253 254 253 257 257 256 257 229 224 224 229 220 220 220 219 218 222 223 229 231 227 235 234 236 235 232
18 7 348 323 309 298 291 292 295 291 292 289 302 265 264 262 255 253 251 256 255 256 252 253 254 240 232 227 223 223 225 223 222 223 226 228 231 232 235 234 236 234 233
17 14 13 4 353 333 305 299 296 294 293 297 288 282 284 257 259 256 252 250 253 250 249 247 248 245 244 234 227 227 228 227 226 226 227 229 231 232 234 237 234 233 233
9 10 7 4 360 352 346 320 309 304 297 296 284 288 305 276 256 254 255 252 250 248 247 248 250 250 249 247 232 231 230 230 229 229 227 228 231 232 232 236 237 233 232
356 359 1 3 1 354 346 337 328 314 306 308 305 305 291 302 283 259 253 252 249 249 246 251 248 248 249 248 241 235 234 233 231 231 230 229 231 231 231 234 237 233 231
346 348 351 352 352 350 349 347 340 327 319 309 304 303 297 290 296 291 265 248 252 250 249 248 250 249 248 250 248 240 237 235 234 233 232 231 231 230 229 231 234 233 230
337 339 342 343 343 342 340 339 336 332 326 319 309 304 301 301 289 291 284 255 250 256 256 248 251 247 245 249 248 246 240 236 236 235 234 233 233 232 232 230 231 231 231
326 330 335 336 337 335 334 332 333 332 329 321 312 307 302 297 295 291 278 274 277 264 252 250 250 248 243 243 247 245 242 238 236 236 236 234 234 235 233 233 232 230 229
322 325 333 334 334 332 331 330 329 325 325 326 319 311 307 302 300 294 292 286 279 272 301 239 250 248 245 242 242 242 244 241 237 235 234 234 234 235 234 233 232 231 229
326 323 331 335 330 330 330 327 325 325 324 324 323 315 310 306 304 303 297 294 292 280 279 258 248 237 242 245 242 241 238 243 241 239 237 235 232 231 231 229 228 229 227
328 321 325 330 330 332 330 329 327 326 325 323 323 320 308 305 307 304 303 303 301 294 283 270 264 295 257 236 240 238 239 237 243 241 240 237 235 230 229 228 225 227 226
324 321 320 324 327 329 328 326 324 323 322 319 319 320 315 307 305 307 306 306 305 302 297 277 262 275 297 246 220 221 223 231 232 236 239 239 235 232 229 227 225 225 227
326 323 318 321 324 326 325 323 322 321 320 322 320 317 313 311 305 301 302 301 301 299 293 290 284 269 268 290 228 217 208 223 214 228 233 234 234 233 230 228 229 225 226
324 319 316 319 321 323 322 320 320 318 316 316 314 312 310 308 307 303 299 298 297 297 293 290 291 275 266 259 267 282 235 222 199 203 224 226 226 231 229 228 228 226 225
325 321 317 317 318 320 322 319 315 313 312 311 310 309 309 309 308 308 306 300 293 291 291 284 278 274 270 266 261 275 263 227 222 209 200 211 218 224 226 226 229 228 225
326 321 319 318 320 320 318 316 315 315 312 309 310 309 310 307 305 303 303 300 296 293 290 285 277 276 274 271 267 257 264 235 211 207 207 206 212 215 222 227 229 227 226
Wind_Speed_850mb
45 32 24 21 20 16 16 16 16 16 17 16 16 14 12 9 7 11 12 11 7 12 11 14 17 19 18 21 29 30 28 28 27 23 21 26 17 15 14 15 16 19 20
43 29 20 20 21 19 18 20 21 21 21 21 18 17 17 13 12 12 14 13 10 13 17 18 22 20 20 14 16 29 34 31 28 30 25 20 17 15 13 16 15 16 15
37 24 22 20 22 23 20 20 23 23 23 23 21 20 18 18 17 16 16 22 21 18 19 22 29 22 24 20 13 18 28 25 24 28 25 19 18 18 14 14 13 14 13
29 22 24 28 31 25 21 21 22 24 24 24 24 19 19 19 19 19 17 21 30 26 24 26 20 35 28 25 17 17 28 30 27 26 22 20 16 16 15 13 13 12 12
29 24 23 27 28 21 25 24 27 28 27 26 24 22 22 21 21 24 23 26 30 37 40 27 23 28 34 30 24 20 27 27 24 26 23 20 18 16 15 15 14 13 11
23 22 25 24 24 25 29 27 31 33 33 31 29 30 26 25 27 28 28 29 30 35 39 31 28 26 37 36 32 28 27 27 23 20 21 21 17 17 17 17 15 13 12
17 12 10 22 26 23 25 31 31 35 38 37 36 38 36 32 30 29 31 31 30 34 37 36 34 30 33 38 38 36 33 35 28 25 23 21 17 17 19 19 18 17 15
17 14 12 10 16 30 30 32 34 36 38 42 43 45 43 43 38 35 35 34 32 33 32 35 38 36 34 35 37 38 39 40 40 35 31 25 24 23 22 21 20 19 18
21 17 15 15 16 18 21 33 35 38 40 44 48 49 50 51 50 44 42 40 36 35 37 37 41 41 37 41 40 41 42 43 44 39 36 32 28 28 24 23 24 22 21
20 22 20 18 18 22 21 21 28 44 42 44 49 52 54 55 58 56 52 48 44 41 39 44 48 47 46 46 45 44 45 47 47 43 39 35 33 30 27 25 24 23 23
18 15 20 26 26 27 29 30 26 30 37 50 50 54 57 60 63 65 60 58 53 48 45 44 49 50 47 47 51 49 49 50 49 48 46 41 37 31 30 28 26 25 24
41 35 31 30 32 35 37 38 35 36 34 40 38 59 56 63 69 71 67 67 63 58 53 53 51 51 52 55 54 52 54 51 51 49 49 46 42 35 34 31 30 29 29
39 39 40 37 34 33 37 40 42 41 42 37 37 42 60 64 65 78 78 74 75 68 62 60 60 58 60 59 58 58 56 55 54 52 52 52 48 42 37 34 33 34 34
43 39 36 37 38 36 35 36 41 44 45 48 48 45 42 70 77 74 87 86 85 81 74 71 69 68 63 60 59 59 60 59 59 58 56 56 52 48 42 39 37 39 39
42 45 44 42 40 40 41 39 39 44 48 50 51 53 59 47 40 79 92 94 94 91 84 79 77 77 71 66 63 63 64 65 63 63 61 61 56 52 47 44 43 44 42
43 46 48 47 49 48 44 42 42 43 46 49 55 54 54 57 60 46 53 93 92 97 96 88 88 84 82 75 71 70 68 69 68 67 65 64 60 55 51 47 48 49 47
41 45 47 50 50 50 51 51 51 49 48 50 52 54 56 55 58 53 40 36 38 87 99 100 95 92 86 84 81 75 73 73 74 72 69 67 63 60 56 51 50 52 50
41 43 46 51 52 53 53 54 58 60 56 55 55 54 57 54 52 59 59 56 41 21 49 109 108 106 100 92 84 82 79 77 78 77 73 70 68 66 61 58 56 55 54
40 43 47 52 55 59 61 63 64 65 65 60 55 57 55 59 56 55 57 68 66 54 42 57 105 116 110 105 93 86 81 80 78 78 77 75 73 71 66 65 63 59 59
43 42 48 55 57 60 62 65 71 74 73 71 65 56 57 59 61 60 60 58 59 66 64 34 32 82 114 113 103 96 87 81 79 78 79 79 77 74 70 69 68 64 61
50 50 54 66 63 63 69 74 80 84 84 81 76 67 58 59 59 62 61 62 62 64 70 69 50 71 32 91 109 99 93 84 82 81 79 79 78 76 76 74 71 68 64
55 54 55 66 66 65 70 76 80 86 86 84 81 79 67 62 61 63 65 64 62 64 63 63 85 84 54 54 96 68 52 74 88 85 78 77 77 77 78 77 73 70 67
56 55 62 62 65 68 72 77 82 89 93 94 94 83 72 70 65 66 66 65 65 60 58 65 70 88 88 56 63 64 37 42 60 89 91 82 78 75 72 75 75 72 66
56 53 55 62 64 66 70 75 80 87 98 97 90 75 75 76 75 69 67 67 68 64 64 61 53 60 82 110 95 55 84 59 44 37 85 90 86 81 81 79 77 74 74
56 54 58 60 62 66 71 75 81 91 87 79 79 80 79 81 81 79 72 68 64 67 63 56 59 63 75 80 103 92 78 87 81 60 42 86 89 87 84 83 81 76 77
60 57 57 60 67 69 73 75 77 79 80 78 77 80 83 82 82 81 79 72 71 69 67 63 64 64 67 74 89 107 95 74 79 78 55 80 98 95 94 88 83 80 78
Wind_Direction_850mb
336 334 328 319 268 249 228 231 235 231 233 242 264 271 278 270 235 191 172 178 170 188 170 169 180 175 192 198 200 209 216 209 211 211 205 206 174 166 151 131 134 132 128
336 325 320 330 278 262 244 235 238 242 249 255 259 265 273 264 254 217 185 179 162 177 197 162 187 204 182 196 211 207 217 215 221 217 217 168 168 154 147 147 146 138 135
347 340 335 331 317 267 251 242 246 254 258 263 263 266 267 266 260 255 230 195 186 192 197 220 232 216 203 209 216 200 200 197 177 176 177 170 170 165 167 160 161 160 152
355 349 344 334 329 274 261 256 255 256 264 268 270 266 270 261 261 260 248 226 197 196 218 223 232 222 211 211 214 183 180 180 170 162 159 159 168 183 188 183 187 177 170
11 341 327 329 329 320 276 264 263 263 264 266 267 256 276 261 263 263 258 252 235 211 221 234 236 226 213 210 204 182 177 173 173 174 175 170 170 195 201 205 200 195 188
25 3 334 308 313 318 320 288 272 266 268 265 263 257 262 263 271 263 261 261 248 233 230 230 236 240 212 211 204 196 188 186 189 190 186 184 186 202 207 216 213 207 202
354 19 13 309 293 296 306 305 299 279 268 264 261 257 262 257 266 262 261 263 253 243 230 220 231 239 214 212 208 204 200 203 203 212 215 204 204 210 215 220 218 216 213
314 328 330 283 292 287 295 294 287 290 274 264 260 259 260 256 256 257 260 263 261 254 226 220 224 233 222 212 211 209 207 206 209 210 222 221 224 225 226 226 227 222 221
266 266 272 278 271 271 286 285 285 282 281 271 267 262 260 258 254 254 255 261 263 260 243 216 225 232 230 215 213 211 210 209 212 215 220 224 220 231 230 231 232 227 224
275 262 264 267 273 278 289 291 289 283 276 273 269 266 264 257 257 256 253 256 261 261 254 239 218 228 231 224 217 216 214 213 215 218 224 228 228 229 235 233 234 233 228
12 327 299 290 284 285 288 290 290 292 301 268 266 265 265 256 252 253 254 253 257 257 256 257 229 224 224 229 220 220 220 219 218 222 223 229 231 227 235 234 236 235 232
18 7 348 323 309 298 291 292 295 291 292 289 302 265 264 262 255 253 251 256 255 256 252 253 254 240 232 227 223 223 225 223 222 223 226 228 231 232 235 234 236 234 233
17 14 13 4 353 333 305 299 296 294 293 297 288 282 284 257 259 256 252 250 253 250 249 247 248 245 244 234 227 227 228 227 226 226 227 229 231 232 234 237 234 233 233
9 10 7 4 360 352 346 320 309 304 297 296 284 288 305 276 256 254 255 252 250 248 247 248 250 250 249 247 232 231 230 230 229 229 227 228 231 232 232 236 237 233 232
356 359 1 3 1 354 346 337 328 314 306 308 305 305 291 302 283 259 253 252 249 249 246 251 248 248 249 248 241 235 234 233 231 231 230 229 231 231 231 234 237 233 231
346 348 351 352 352 350 349 347 340 327 319 309 304 303 297 290 296 291 265 248 252 250 249 248 250 249 248 250 248 240 237 235 234 233 232 231 231 230 229 231 234 233 230
337 339 342 343 343 342 340 339 336 332 326 319 309 304 301 301 289 291 284 255 250 256 256 248 251 247 245 249 248 246 240 236 236 235 234 233 233 232 232 230 231 231 231
326 330 335 336 337 335 334 332 333 332 329 321 312 307 302 297 295 291 278 274 277 264 252 250 250 248 243 243 247 245 242 238 236 236 236 234 234 235 233 233 232 230 229
322 325 333 334 334 332 331 330 329 325 325 326 319 311 307 302 300 294 292 286 279 272 301 239 250 248 245 242 242 242 244 241 237 235 234 234 234 235 234 233 232 231 229
326 323 331 335 330 330 330 327 325 325 324 324 323 315 310 306 304 303 297 294 292 280 279 258 248 237 242 245 242 241 238 243 241 239 237 235 232 231 231 229 228 229 227
328 321 325 330 330 332 330 329 327 326 325 323 323 320 308 305 307 304 303 303 301 294 283 270 264 295 257 236 240 238 239 237 243 241 240 237 235 230 229 228 225 227 226
324 321 320 324 327 329 328 326 324 323 322 319 319 320 315 307 305 307 306 306 305 302 297 277 262 275 297 246 220 221 223 231 232 236 239 239 235 232 229 227 225 225 227
326 323 318 321 324 326 325 323 322 321 320 322 320 317 313 311 305 301 302 301 301 299 293 290 284 269 268 290 228 217 208 223 214 228 233 234 234 233 230 228 229 225 226
324 319 316 319 321 323 322 320 320 318 316 316 314 312 310 308 307 303 299 298 297 297 293 290 291 275 266 259 267 282 235 222 199 203 224 226 226 231 229 228 228 226 225
325 321 317 317 318 320 322 319 315 313 312 311 310 309 309 309 308 308 306 300 293 291 291 284 278 274 270 266 261 275 263 227 222 209 200 211 218 224 226 226 229 228 225
326 321 319 318 320 320 318 316 315 315 312 309 310 309 310 307 305 303 303 300 296 293 290 285 277 276 274 271 267 257 264 235 211 207 207 206 212 215 222 227 229 227 226